This demonstration page uses our WeatherBlox Daily Observations layout. Learn more.

Left ArrowRight Arrow

Hourly Observations for May 30, 2021

Temp ( °F °C ) Dew Point ( °F °C ) Humidity (%) Winds ( mph kmh ) Pressure ( in mb ) Visibility ( mi km ) Precip ( " mm )
12:59 am 00:59 Cloudy with Light Rain 59 15 54 12.2 83 83 NE 15 24 29.99 1016 10 16 0.00 0.00
1:59 am 01:59 Cloudy with Light Rain 58 14.4 54 12.2 87 87 NNE 13 20 29.98 1015 5 8 0.01 0.25
2:59 am 02:59 Cloudy 57 13.9 54 12.2 90 90 NE 18 30 29.97 1015 9 14 0.11 2.79
3:17 am 03:17 Cloudy 57 13.9 54 12.2 90 90 NNE 17 28 29.98 1015 9 14 0.00 0.00
3:59 am 03:59 Cloudy with Light Rain 57 13.9 53 11.7 87 87 NNE 20 31 29.99 1016 7 11 0.00 0.00
4:24 am 04:24 Cloudy with Light Rain 57 13.9 54 12.2 90 90 NNE 14 22 30.00 1016 3 4 0.00 0.00
4:59 am 04:59 Cloudy with Light Rain 57 13.9 54 12.2 90 90 NNE 15 24 29.99 1016 4 6 0.02 0.51
5:07 am 05:07 Cloudy with Light Rain 57 13.9 53 11.7 87 87 NNE 17 28 30.00 1016 4 6 0.01 0.25
5:29 am 05:29 Cloudy with Light Rain 57 13.9 53 11.7 87 87 NNE 18 30 30.01 1016 6 10 0.01 0.25
5:36 am 05:36 Cloudy with Light Rain 57 13.9 53 11.7 87 87 NE 16 26 30.01 1016 5 8 0.01 0.25
5:51 am 05:51 Cloudy with Light Rain 57 13.9 53 11.7 87 87 NNE 15 24 30.02 1017 8 13 0.02 0.51
5:59 am 05:59 Cloudy with Light Rain 57 13.9 53 11.7 87 87 NNE 18 30 30.01 1016 6 10 0.02 0.51
6:33 am 06:33 Cloudy with Light Rain 57 13.9 53 11.7 87 87 NNE 18 30 30.02 1017 5 8 0.00 0.00
6:59 am 06:59 Cloudy with Light Rain 57 13.9 53 11.7 87 87 NE 20 31 30.01 1016 1 2 0.08 2.03
7:07 am 07:07 Cloudy with Light Rain 57 13.9 53 11.7 87 87 NE 20 31 30.01 1016 1 2 0.10 2.54
7:15 am 07:15 Cloudy with Light Rain 57 13.9 53 11.7 87 87 NE 20 31 30.02 1017 2 3 0.12 3.05
7:18 am 07:18 Cloudy with Light Rain 57 13.9 53 11.7 87 87 NE 18 30 30.02 1017 3 5 0.12 3.05
7:46 am 07:46 Cloudy 58 14.4 53 11.7 84 84 NNE 17 28 30.03 1017 10 16 0.12 3.05
7:59 am 07:59 Cloudy 58 14.4 53 11.7 84 84 NE 16 26 30.03 1017 10 16 0.12 3.05
8:59 am 08:59 Cloudy 58 14.4 51 10.6 78 78 NE 17 28 30.05 1018 10 16 0.00 0.00
9:59 am 09:59 Cloudy 58 14.4 53 11.7 84 84 NNE 15 24 30.06 1018 7 11 0.00 0.00
10:01 am 10:01 Cloudy with Light Rain 58 14.4 53 11.7 84 84 NNE 13 20 30.06 1018 8 13 0.01 0.25
10:38 am 10:38 Cloudy with Light Rain 58 14.4 54 12.2 87 87 N 16 26 30.06 1018 4 6 0.02 0.51
10:59 am 10:59 Cloudy with Mist and Fog 58 14.4 54 12.2 87 87 N 15 24 30.07 1018 5 8 0.02 0.51
11:59 am 11:59 Cloudy with Mist and Fog 57 13.9 53 11.7 87 87 N 15 24 30.08 1019 4 6 0.00 0.00
12:59 pm 12:59 Cloudy 57 13.9 52 11.1 83 83 N 16 26 30.09 1019 7 11 0.00 0.00
1:59 pm 13:59 Cloudy with Drizzle 57 13.9 52 11.1 83 83 N 16 26 30.09 1019 4 6 0.00 0.00
2:59 pm 14:59 Cloudy 58 14.4 52 11.1 81 81 NNW 15 24 30.11 1020 10 16 0.00 0.00
3:59 pm 15:59 Cloudy 59 15 51 10.6 75 75 NNW 16 26 30.11 1020 10 16 0.00 0.00
4:59 pm 16:59 Cloudy 59 15 51 10.6 75 75 NW 15 24 30.12 1020 10 16 0.00 0.00
5:59 pm 17:59 Cloudy 59 15 51 10.6 75 75 NNW 8 13 30.13 1020 10 16 0.00 0.00
6:59 pm 18:59 Cloudy 58 14.4 50 10 75 75 N 12 19 30.15 1021 10 16 0.00 0.00
7:59 pm 19:59 Cloudy 58 14.4 49 9.4 72 72 NNW 14 22 30.17 1022 10 16 0.00 0.00
8:59 pm 20:59 Cloudy 58 14.4 49 9.4 72 72 NW 15 24 30.19 1023 10 16 0.00 0.00
9:59 pm 21:59 Cloudy 58 14.4 48 8.9 70 70 NNW 17 28 30.22 1023 10 16 0.00 0.00
10:59 pm 22:59 Cloudy 58 14.4 48 8.9 70 70 NW 16 26 30.23 1024 10 16 0.00 0.00
11:59 pm 23:59 Cloudy 58 14.4 47 8.3 67 67 NW 10 17 30.25 1024 10 16 0.00 0.00

Powered by AerisWeather